星链-31859 (STARLINK-31859 )

导读

STARLINK-31859是美国太空探索技术公司(SpaceX)星链(Starlink)卫星互联网项目中的一颗低轨卫星,属于第二代卫星星座计划,于2024年5月23日发射入轨。它运行在近地轨道,配备先进通信设备,支持Ku和Ka频段传输,旨在为全球,尤其偏远网络覆盖不足地区提供高速低延迟宽带服务,作为星链网络节点提升容量与连接稳定性,目前在轨运行。

Basic Information
目录编号:
59848
目录名称:
STARLINK-31859
国际标识:
2024-097P
轨道中心:
EARTH
卫星名称:
星链-31859
卫星全名:
星链-31859 (STARLINK-31859 )
卫星状态:
在轨 (已飞行834 天)
发射日期:
2024-05-23 UTC
国别 :
美国 (US)
星等 :
--
Orbit Information
数据来源 国际轨道数据
星历时间: 2026-09-03T23:36:52+0800
11小时前
查看轨道信息
半长轴: 6849.097km
偏心率: 0.0005189
轨道倾角: 42.998°
近地点辐角 355.490°
升交点赤经 341.531°
平近点角 4.590°
近地点: 467.406km
远地点: 474.514km
周期: 94.018分钟
每日圈数: 15.316262
Detailed Information
固有亮度:
5
最大亮度:
1.5
卫星平台:
Starlink v2.0 mini
覆盖范围:
全球
运营商:
太空探索技术公司
运营商所在国:
美国
制造商(研发单位):
太空探索技术公司
制造商所在国:
美国
使用方式:
暂无
Satellite Introduction
星链(Starlink)计划是由太空探索技术公司(SpaceX)提出的一个巨型低轨卫星互联网星座项目,计划在2019年至2024年间在太空搭建由约1.2万颗卫星组成的“星链”网络,其中1584颗将部署在地球上空550千米处的近地轨道,并从2020年开始工作。该卫星仍在工作。
2D Orbit Map
3D Orbit Map
Orbit Altitude Analysis Chart
Orbit Inclination Analysis Chart
Orbit Comprehensive Analysis Chart
View Comprehensive Chart
Conjunction Data List
Event ID Objects TCA Miss Dist (km) Collision Risk Probability Collision Risk Index (CRI) Action
CDM_260904-003605-984806-780221
2026-09-04T
00:36:24+0000
0.451 km
远距离
2.226645E-4 高风险 0.82
CDM_260905-003805-984806-788621
2026-09-05T
00:38:51+0000
0.779 km
远距离
5.977839E-5 中风险 0.71
CDM_260903-134705-984806-867521
2026-09-03T
13:47:38+0000
1.189 km
极远距离
1.39174E-5 中风险 0.58
CDM_260904-143805-196905-984821
2026-09-04T
14:38:52+0000
1.057 km
极远距离
1.20833E-5 中风险 0.57
CDM_260904-103705-984806-803122
2026-09-04T
10:37:14+0000
1.577 km
极远距离
5.431921E-6 低风险 0.5
CDM_260903-154305-984806-789423
2026-09-03T
15:43:38+0000
1.890 km
极远距离
3.244342E-6 低风险 0.45
CDM_260903-234705-984806-509022
2026-09-03T
23:47:15+0000
1.807 km
极远距离
2.091241E-6 低风险 0.41
CDM_260905-142105-984806-539821
2026-09-05T
14:21:22+0000
2.250 km
极远距离
2.075842E-6 低风险 0.41
CDM_260904-004105-984806-545022
2026-09-04T
00:41:00+0000
2.215 km
极远距离
2.046864E-6 低风险 0.41
CDM_260904-193105-984806-942621
2026-09-04T
19:31:47+0000
2.329 km
极远距离
1.902537E-6 低风险 0.41